Regional Weather Roundup
Issued by NWS

Home | Current Version | Previous Version | Text Only | Print | Product List | Glossary On
Versions: 1 2 3 4 5 6 7 8 9 10 11 12 13 14 15 16 17 18 19 20 21 22 23 24 25 26 27 28 29 30 31 32 33 34 35 36 37 38 39 40 41 42 43 44 45 46 47 48 49 50
000
ASUS44 KMEG 122210
RWRTN
TENNESSEE HOURLY STATE WEATHER ROUNDUP
NATIONAL WEATHER SERVICE MEMPHIS TN
400 PM CST FRI FEB 12 2016

TNZ002-004-019-021-049-052-054-088>092-122300-
WEST TENNESSEE

CITY           SKY/WX    TMP DP  RH WIND       PRES   REMARKS
MEMPHIS INTL   MOSUNNY   52  27  38 N12       30.28R
NWS MEMPHIS      N/A     51 N/A N/A MISG        N/A
JACKSON        SUNNY     46  27  47 NW15      30.27R
DYERSBURG      SUNNY     45  25  45 N10G18    30.31R
UNION CITY     SUNNY     39  27  60 N16       30.29R WCI  30
PARIS          PTSUNNY   37  25  60 N10       30.27R WCI  30
LEXINGTON      SUNNY     45  25  45 NW14      30.23R
$$

TNZ008-025-027-028-033-062-065-066-122300-
NORTH MIDDLE TENNESSEE

CITY           SKY/WX    TMP DP  RH WIND       PRES   REMARKS
NASHVILLE      CLOUDY    41  26  55 NW12      30.21R
CLARKSVILLE    MOSUNNY   38  25  59 N17       30.25R WCI  28
SMYRNA         CLOUDY    41  28  60 N15       30.22R
COOKEVILLE     MOSUNNY   37  28  70 NW6       30.16R WCI  33
CROSSVILLE     CLOUDY    34  26  72 NW10      30.13R WCI  26
$$

TNZ061-075-076-078-094-096-097-122300-
SOUTH MIDDLE TENNESSEE

CITY           SKY/WX    TMP DP  RH WIND       PRES   REMARKS
FAYETTEVILLE   SUNNY     50  27  40 NW8G17    30.14R
TULLAHOMA      MOSUNNY   45  25  45 NW13      30.15R
WINCHESTER     MOSUNNY   46  28  49 N9        30.15R
MCMINNVILLE    CLOUDY    41  28  60 NW8       30.17R
COLUMBIA       SUNNY     46  28  49 N8        30.17R
SHELBYVILLE    MOSUNNY   46  28  49 N12       30.17R
$$

TNZ017-018-042-046-047-122300-
NORTHEAST TENNESSEE

CITY           SKY/WX    TMP DP  RH WIND       PRES   REMARKS
TRI CITIES     CLOUDY    32  28  85 SW10      30.06R WCI  24
$$

TNZ012-013-036-069-073-074-122300-
CENTRAL EAST TENNESSEE

CITY           SKY/WX    TMP DP  RH WIND       PRES   REMARKS
KNOXVILLE      CLOUDY    36  30  79 W5        30.13R WCI  32
OAK RIDGE      CLOUDY    37  28  70 W6        30.15R WCI  32
GATLINBURG     CLOUDY    34  30  86 W5        30.12R WCI  30
MORRISTOWN     CLOUDY    32  30  93 W8        30.10R WCI  25
$$

TNZ083-085-099-122300-
SOUTHEAST TENNESSEE

CITY           SKY/WX    TMP DP  RH WIND       PRES   REMARKS
CHATTANOOGA    PTSUNNY   53  27  36 VRB5      30.11R
$$

SKY/WX REPORTED AS FAIR MEANS FEW OR NO CLOUDS BELOW
12 THOUSAND FEET.




USA.gov is the U.S. government's official web portal to all federal, state and local government web resources and services.